period_start,C,m1,H,J0,J1,J2,J3,J4,J5,JA,JB,JC,JD,JJ,JK,JN,#
2018-06-12 00:03:41,-0.00,0.32,0.00,27.97,31.90,34.37,13.76,48.60,1021.56,2006.01,3270.01,2956.99,3400.99,599.94,588.99,9.01,0000 0000 0000 0000 000000
2018-06-12 00:08:42,0.01,0.32,0.00,27.95,31.90,34.42,13.79,48.49,1021.57,2006.06,3270.00,2956.99,3400.99,599.98,589.14,9.06,0000 0000 0000 0000 000000
2018-06-12 00:13:44,-0.00,0.32,0.00,27.95,31.90,34.38,13.74,48.54,1021.53,2006.09,3270.00,2956.99,3400.99,600.48,589.55,9.11,0000 0000 0000 0000 000000
2018-06-12 00:18:45,0.01,0.32,0.00,27.95,31.88,34.39,13.75,48.58,1021.53,2006.16,3270.00,2956.99,3400.99,600.12,589.19,9.16,0000 0000 0000 0000 000000
2018-06-12 00:23:46,0.01,0.32,0.00,27.94,31.87,34.36,13.73,48.52,1021.72,2006.23,3270.00,2956.99,3400.99,599.54,588.82,9.21,0000 0000 0000 0000 000000
2018-06-12 00:28:47,0.04,0.33,0.00,27.95,31.87,34.39,13.77,48.59,1021.55,2006.67,3270.00,2956.99,3401.00,600.02,589.10,9.26,0000 0000 0000 0000 000000
2018-06-12 00:33:49,0.01,0.33,0.00,27.95,31.87,34.41,13.77,48.63,1021.57,2006.78,3270.00,2956.99,3401.00,599.79,588.92,9.31,0000 0000 0000 0000 000000
2018-06-12 00:38:50,0.00,0.33,0.00,27.96,31.87,34.37,13.69,48.51,1021.78,2006.89,3270.00,2956.99,3401.00,599.81,589.07,9.36,0000 0000 0000 0000 000000
2018-06-12 00:43:51,0.00,0.33,0.00,27.95,31.86,34.41,13.72,48.34,1021.88,2006.95,3270.00,2956.99,3401.00,599.97,589.40,9.41,0000 0000 0000 0000 000000
2018-06-12 00:48:53,-0.00,0.33,0.00,27.97,31.85,34.35,13.80,48.58,1021.69,2006.93,3269.99,2956.99,3401.00,600.11,589.21,9.46,0000 0000 0000 0000 000000
2018-06-12 00:53:54,0.00,0.33,0.00,27.96,31.85,34.37,13.76,48.41,1021.65,2006.94,3269.95,2956.99,3400.99,599.95,589.04,9.51,0000 0000 0000 0000 000000
2018-06-12 00:58:55,-0.00,0.33,0.00,27.96,31.85,34.35,13.71,48.40,1021.59,2006.95,3269.94,2956.99,3400.99,599.76,588.84,9.56,0000 0000 0000 0000 000000
2018-06-12 01:03:56,0.01,0.33,0.00,27.95,31.85,34.34,13.71,48.36,1021.52,2006.95,3269.77,2956.99,3400.98,599.84,588.91,9.61,0000 0000 0000 0000 000000
2018-06-12 01:08:57,0.00,0.33,0.00,27.97,31.85,34.36,13.82,48.47,1021.52,2006.95,3269.55,2956.97,3400.96,600.29,589.32,9.66,0000 0000 0000 0000 000000
2018-06-12 01:13:59,-0.00,0.33,0.00,27.99,31.85,34.39,13.85,48.41,1021.56,2006.97,3269.49,2956.98,3400.96,600.06,589.06,9.71,0000 0000 0000 0000 000000
2018-06-12 01:19:00,0.00,0.33,0.00,28.00,31.85,34.39,13.77,48.45,1021.67,2006.95,3269.65,2956.98,3400.95,600.10,589.23,9.76,0000 0000 0000 0000 000000
2018-06-12 01:24:02,0.00,0.33,0.00,28.00,31.85,34.35,13.77,48.37,1021.54,2006.97,3269.40,2956.96,3400.92,599.77,588.78,9.81,0000 0000 0000 0000 000000
2018-06-12 01:29:03,0.02,0.33,0.00,28.00,31.85,34.41,13.78,48.40,1021.52,2006.97,3269.05,2956.93,3400.62,600.03,589.14,9.86,0000 0000 0000 0000 000000
2018-06-12 01:34:05,0.01,0.33,0.00,28.03,31.85,34.40,13.81,48.35,1021.52,2006.98,3269.01,2956.84,3400.32,600.17,589.11,9.91,0000 0000 0000 0000 000000
2018-06-12 01:39:06,0.01,0.33,0.00,28.03,31.85,34.40,13.72,48.33,1021.52,2006.97,3269.00,2956.58,3400.10,599.86,588.71,9.96,0000 0000 0000 0000 000000
2018-06-12 01:44:08,0.00,0.33,0.00,28.04,31.85,34.41,13.84,48.38,1021.53,2006.89,3269.00,2956.22,3400.02,600.15,589.06,10.01,0000 0000 0000 0000 000000
2018-06-12 01:49:09,0.01,0.33,0.00,28.05,31.85,34.43,13.73,48.51,1021.56,2006.89,3268.98,2956.06,3400.00,599.76,588.70,10.06,0000 0000 0000 0000 000000
2018-06-12 01:54:10,-0.00,0.33,0.00,28.06,31.85,34.43,13.78,48.85,1021.53,2006.93,3268.96,2956.05,3400.00,600.45,589.36,10.11,0000 0000 0000 0000 000000
2018-06-12 01:59:11,-0.01,0.33,0.00,28.08,31.86,34.47,13.78,48.81,1021.65,2006.79,3268.88,2956.03,3399.99,600.14,588.96,10.16,0000 0000 0000 0000 000000
2018-06-12 02:04:13,0.01,0.33,0.00,28.10,31.87,34.46,13.67,48.55,1021.65,2006.87,3268.36,2956.00,3399.98,599.76,588.85,10.21,0000 0000 0000 0000 000000
2018-06-12 02:09:14,-0.01,0.33,0.00,28.11,31.87,34.48,13.76,48.58,1021.59,2006.69,3268.13,2956.00,3399.81,600.15,588.98,10.27,0000 0000 0000 0000 000000
2018-06-12 02:14:15,0.00,0.33,0.00,28.15,31.87,34.50,13.84,48.63,1021.88,2006.58,3268.01,2955.99,3399.38,600.51,589.41,10.32,0000 0000 0000 0000 000000
2018-06-12 02:19:17,0.01,0.33,0.00,28.16,31.88,34.49,13.80,48.55,1021.88,2006.71,3268.00,2955.97,3399.15,599.94,588.96,10.37,0000 0000 0000 0000 000000
2018-06-12 02:24:18,0.02,0.33,0.00,28.17,31.90,34.49,13.75,48.41,1021.79,2006.87,3267.99,2955.97,3399.07,599.82,588.68,10.42,0000 0000 0000 0000 000000
2018-06-12 02:29:19,0.00,0.33,0.00,28.18,31.90,34.48,13.75,48.31,1021.73,2006.89,3267.93,2955.88,3399.01,600.04,588.78,10.47,0000 0000 0000 0000 000000
2018-06-12 02:34:20,0.00,0.33,0.00,28.19,31.90,34.51,13.80,48.34,1021.68,2006.79,3267.83,2955.65,3399.00,600.28,588.92,10.52,0000 0000 0000 0000 000000
2018-06-12 02:39:21,-0.00,0.33,0.00,28.21,31.92,34.51,13.72,48.27,1021.55,2006.54,3267.62,2955.28,3398.99,599.66,588.13,10.57,0000 0000 0000 0000 000000
2018-06-12 02:44:23,0.03,0.33,0.00,28.24,31.92,34.53,13.71,48.34,1021.78,2006.55,3267.18,2955.09,3398.98,599.94,588.65,10.62,0000 0000 0000 0000 000000
2018-06-12 02:49:24,0.02,0.33,0.00,28.26,31.94,34.54,13.79,48.35,1021.60,2006.81,3267.00,2955.00,3398.59,599.98,588.30,10.67,0000 0000 0000 0000 000000
2018-06-12 02:54:25,-0.00,0.33,0.00,28.28,31.95,34.56,13.79,48.32,1021.63,2006.65,3266.97,2955.00,3398.06,600.12,588.51,10.72,0000 0000 0000 0000 000000
2018-06-12 02:59:27,-0.00,0.33,0.00,28.30,31.95,34.57,13.71,48.28,1021.78,2006.54,3266.69,2954.98,3398.00,599.89,588.52,10.77,0000 0000 0000 0000 000000
2018-06-12 03:04:28,0.01,0.33,0.00,28.31,31.97,34.60,13.70,48.28,1021.83,2006.35,3266.06,2954.82,3397.99,599.73,588.32,10.82,0000 0000 0000 0000 000000
2018-06-12 03:09:29,0.00,0.33,0.00,28.32,31.97,34.61,13.76,48.39,1021.82,2006.36,3266.00,2954.35,3397.82,600.10,588.61,10.87,0000 0000 0000 0000 000000
2018-06-12 03:14:31,-0.00,0.33,0.00,28.34,31.98,34.63,13.77,48.55,1021.76,2006.12,3266.00,2954.08,3397.38,600.13,588.43,10.92,0000 0000 0000 0000 000000
2018-06-12 03:19:32,0.00,0.33,0.00,28.37,32.00,34.63,13.76,48.45,1021.95,2006.06,3265.95,2954.03,3397.06,599.97,588.46,10.97,0000 0000 0000 0000 000000
2018-06-12 03:24:33,0.00,0.33,0.00,28.40,32.00,34.65,13.78,48.36,1021.95,2006.06,3265.94,2954.00,3397.05,599.82,588.29,11.02,0000 0000 0000 0000 000000
2018-06-12 03:29:34,0.01,0.33,0.00,28.41,32.01,34.66,13.70,48.25,1021.99,2006.05,3265.54,2954.01,3397.01,600.28,588.71,11.07,0000 0000 0000 0000 000000
2018-06-12 03:34:35,-0.00,0.33,0.00,28.43,32.02,34.68,13.73,48.40,1021.99,2006.06,3265.14,2954.00,3397.00,600.11,588.48,11.12,0000 0000 0000 0000 000000
2018-06-12 03:39:37,-0.00,0.33,0.00,28.46,32.02,34.69,13.81,48.41,1021.99,2006.02,3265.07,2954.00,3396.98,600.15,588.47,11.17,0000 0000 0000 0000 000000
2018-06-12 03:44:38,0.00,0.33,0.00,28.47,32.05,34.69,13.70,48.39,1021.99,2006.00,3265.00,2953.98,3396.84,599.89,588.14,11.22,0000 0000 0000 0000 000000
2018-06-12 03:49:39,0.01,0.33,0.00,28.49,32.05,34.72,13.77,48.33,1022.00,2006.00,3264.99,2953.89,3396.34,599.78,587.97,11.27,0000 0000 0000 0000 000000
2018-06-12 03:54:40,0.00,0.34,0.00,28.51,32.06,34.74,13.75,48.24,1021.99,2006.00,3264.93,2953.63,3396.03,600.17,588.29,11.32,0000 0000 0000 0000 000000
2018-06-12 03:59:42,0.02,0.34,0.00,28.52,32.07,34.75,13.77,48.38,1022.00,2006.00,3264.54,2953.27,3396.00,600.28,588.48,11.37,0000 0000 0000 0000 000000
2018-06-12 04:04:43,0.01,0.34,0.00,28.55,32.08,34.75,13.82,48.36,1021.99,2006.00,3264.08,2953.05,3396.00,600.11,588.23,11.42,0000 0000 0000 0000 000000
2018-06-12 04:09:44,0.00,0.34,0.00,28.56,32.10,34.78,13.69,48.29,1021.99,2006.00,3264.02,2953.03,3395.99,599.78,587.93,11.47,0000 0000 0000 0000 000000
2018-06-12 04:14:46,0.00,0.34,0.00,28.57,32.11,34.79,13.73,48.32,1021.99,2006.00,3264.00,2953.00,3395.85,600.03,588.07,11.52,0000 0000 0000 0000 000000
2018-06-12 04:19:47,0.00,0.34,0.00,28.59,32.12,34.80,13.77,48.49,1022.00,2005.99,3264.00,2953.00,3395.51,600.00,588.08,11.57,0000 0000 0000 0000 000000
2018-06-12 04:24:48,0.00,0.34,0.00,28.60,32.13,34.83,13.78,48.37,1022.00,2005.98,3263.88,2952.98,3395.10,599.90,588.04,11.62,0000 0000 0000 0000 000000
2018-06-12 04:29:50,0.01,0.34,0.00,28.61,32.15,34.82,13.76,48.33,1021.99,2005.96,3263.44,2952.96,3395.01,600.01,588.08,11.67,0000 0000 0000 0000 000000
2018-06-12 04:34:51,-0.00,0.34,0.00,28.61,32.15,34.83,13.74,48.32,1021.99,2005.88,3263.05,2952.73,3394.99,600.25,588.30,11.72,0000 0000 0000 0000 000000
2018-06-12 04:39:52,-0.01,0.34,0.00,28.63,32.17,34.86,13.74,48.35,1021.99,2005.68,3263.00,2952.32,3394.91,599.93,587.85,11.77,0000 0000 0000 0000 000000
2018-06-12 04:44:53,-0.00,0.34,0.00,28.65,32.18,34.86,13.73,48.23,1021.99,2005.56,3263.00,2952.10,3394.71,600.03,587.99,11.82,0000 0000 0000 0000 000000
2018-06-12 04:49:54,-0.00,0.34,0.00,28.65,32.20,34.86,13.78,48.33,1021.99,2005.35,3263.00,2952.02,3394.22,600.27,588.27,11.87,0000 0000 0000 0000 000000
2018-06-12 04:54:55,-0.01,0.34,0.00,28.65,32.20,34.87,13.76,48.33,1021.99,2005.19,3262.93,2952.01,3394.03,600.11,588.03,11.92,0000 0000 0000 0000 000000
2018-06-12 04:59:57,0.01,0.34,0.00,28.65,32.22,34.90,13.82,48.38,1021.99,2005.13,3262.55,2952.00,3394.00,599.99,588.07,11.97,0000 0000 0000 0000 000000
2018-06-12 05:04:58,0.00,0.34,0.00,28.65,32.22,34.92,13.79,48.38,1021.99,2005.06,3262.06,2951.99,3393.99,599.81,587.89,12.02,0000 0000 0000 0000 000000
2018-06-12 05:09:59,0.00,0.34,0.00,28.67,32.24,34.91,13.71,48.30,1022.00,2005.03,3262.03,2951.99,3393.96,600.08,588.06,12.07,0000 0000 0000 0000 000000
2018-06-12 05:15:01,0.00,0.34,0.00,28.70,32.25,34.92,13.74,48.47,1021.99,2005.03,3262.01,2951.98,3393.84,600.24,587.99,12.12,0000 0000 0000 0000 000000
2018-06-12 05:20:03,0.01,0.34,0.00,28.71,32.25,34.94,13.82,48.32,1022.00,2005.00,3261.99,2951.85,3393.25,600.34,588.14,12.17,0000 0000 0000 0000 000000
2018-06-12 05:25:04,-0.00,0.34,0.00,28.72,32.27,34.95,13.77,48.27,1021.99,2005.00,3261.99,2951.85,3393.16,599.88,587.64,12.22,0000 0000 0000 0000 000000
2018-06-12 05:30:05,0.01,0.34,0.00,28.72,32.27,34.95,13.81,48.32,1022.01,2005.01,3261.91,2951.52,3393.03,600.28,588.09,12.27,0000 0000 0000 0000 000000
2018-06-12 05:35:07,0.01,0.34,0.00,28.72,32.28,34.96,13.68,48.23,1022.02,2005.00,3261.44,2951.17,3393.00,599.68,587.54,12.32,0000 0000 0000 0000 000000
2018-06-12 05:40:08,0.00,0.34,0.00,28.72,32.30,34.95,13.77,48.38,1022.30,2005.00,3261.18,2951.09,3393.00,600.05,588.01,12.37,0000 0000 0000 0000 000000
2018-06-12 05:45:10,0.00,0.34,0.00,28.71,32.30,34.96,13.70,48.26,1022.32,2005.00,3261.04,2951.01,3392.98,600.07,588.12,12.42,0000 0000 0000 0000 000000
2018-06-12 05:50:11,0.00,0.34,0.00,28.74,32.30,34.97,13.71,48.26,1022.43,2005.00,3261.00,2951.00,3392.95,599.84,587.93,12.47,0000 0000 0000 0000 000000
2018-06-12 05:55:12,0.00,0.34,0.00,28.76,32.32,34.98,13.73,48.30,1022.39,2005.00,3261.00,2951.00,3392.59,599.98,588.04,12.53,0000 0000 0000 0000 000000
2018-06-12 06:00:14,0.01,0.34,0.00,28.77,32.32,35.01,13.73,48.19,1022.46,2005.00,3260.92,2951.00,3392.18,599.97,588.03,12.58,0000 0000 0000 0000 000000
2018-06-12 06:05:15,0.00,0.34,0.00,28.76,32.32,34.99,13.68,48.13,1022.47,2005.00,3260.51,2950.97,3392.01,599.85,587.88,12.63,0000 0000 0000 0000 000000
2018-06-12 06:10:16,0.00,0.34,0.00,28.77,32.34,35.00,13.71,48.21,1022.41,2004.99,3260.15,2950.91,3392.00,599.99,587.98,12.68,0000 0000 0000 0000 000000
2018-06-12 06:15:18,0.01,0.34,0.00,28.77,32.35,35.00,13.78,48.34,1022.39,2004.99,3260.01,2950.66,3391.99,600.11,588.08,12.73,0000 0000 0000 0000 000000
2018-06-12 06:20:19,0.00,0.34,0.00,28.80,32.35,35.01,13.77,48.18,1022.30,2004.98,3260.00,2950.59,3391.98,599.69,587.52,12.78,0000 0000 0000 0000 000000
2018-06-12 06:25:21,0.01,0.34,0.00,28.79,32.35,35.02,13.75,48.24,1022.42,2004.99,3260.00,2950.44,3391.95,599.84,587.85,12.83,0000 0000 0000 0000 000000
2018-06-12 06:30:22,0.01,0.34,0.00,28.78,32.37,35.01,13.71,48.25,1022.47,2004.98,3259.99,2950.12,3391.80,599.90,587.92,12.88,0000 0000 0000 0000 000000
2018-06-12 06:35:23,0.01,0.34,0.00,28.78,32.37,35.01,13.69,48.31,1022.43,2004.98,3259.92,2950.08,3391.45,599.88,587.76,12.93,0000 0000 0000 0000 000000
2018-06-12 06:40:25,0.01,0.34,0.00,28.80,32.37,35.04,13.70,48.18,1022.45,2004.93,3259.28,2950.00,3391.02,599.62,587.48,12.98,0000 0000 0000 0000 000000
2018-06-12 06:45:26,-0.00,0.34,0.00,28.82,32.39,35.03,13.80,48.17,1022.30,2004.90,3259.06,2950.00,3391.00,600.35,588.21,13.03,0000 0000 0000 0000 000000
2018-06-12 06:50:27,-0.02,0.34,0.00,28.82,32.40,35.05,13.70,48.27,1022.11,2004.84,3259.01,2950.00,3391.00,599.83,587.46,13.08,0000 0000 0000 0000 000000
2018-06-12 06:55:28,0.00,0.34,0.00,28.84,32.40,35.04,13.71,48.18,1022.18,2004.76,3259.00,2949.98,3391.00,600.43,588.10,13.13,0000 0000 0000 0000 000000
2018-06-12 07:00:29,-0.02,0.34,0.00,28.85,32.41,35.05,13.66,48.24,1022.34,2004.52,3258.97,2949.93,3390.96,600.26,588.04,13.18,0000 0000 0000 0000 000000
2018-06-12 07:05:31,-0.00,0.34,0.00,28.87,32.42,35.06,13.77,48.27,1022.09,2004.35,3258.80,2949.76,3390.78,600.10,587.78,13.23,0000 0000 0000 0000 000000
2018-06-12 07:10:32,0.01,0.34,0.00,28.87,32.42,35.07,13.74,48.17,1022.21,2004.29,3258.54,2949.61,3390.52,599.99,587.78,13.28,0000 0000 0000 0000 000000
2018-06-12 07:15:33,0.00,0.34,0.00,28.90,32.44,35.06,13.69,48.09,1022.29,2004.17,3258.11,2949.18,3390.10,600.02,587.57,13.33,0000 0000 0000 0000 000000
2018-06-12 07:20:34,0.00,0.34,0.00,28.91,32.45,35.11,13.73,48.14,1022.12,2004.13,3258.00,2949.02,3390.01,600.25,587.78,13.38,0000 0000 0000 0000 000000
2018-06-12 07:25:36,0.00,0.34,0.00,28.92,32.45,35.14,13.67,48.16,1022.12,2004.09,3258.00,2949.01,3390.00,600.10,587.59,13.43,0000 0000 0000 0000 000000
2018-06-12 07:30:37,0.00,0.34,0.00,28.96,32.47,35.16,13.70,48.14,1022.05,2004.07,3257.84,2948.86,3389.74,599.93,587.35,13.48,0000 0000 0000 0000 000000
2018-06-12 07:35:38,0.07,0.35,0.00,28.99,32.47,35.16,13.71,48.10,1022.10,2004.07,3256.90,2948.01,3388.12,599.70,587.04,13.53,0000 0000 0000 0000 000000
2018-06-12 07:40:39,0.02,0.35,0.00,29.01,32.50,35.16,13.72,48.13,1022.25,2004.02,3256.42,2947.73,3388.00,600.21,587.62,13.58,0000 0000 0000 0000 000000
2018-06-12 07:45:40,0.01,0.35,0.00,29.02,32.50,35.16,13.75,48.02,1022.09,2004.02,3256.02,2947.15,3387.91,599.86,587.16,13.63,0000 0000 0000 0000 000000
2018-06-12 07:50:42,0.01,0.35,0.00,29.03,32.52,35.17,13.73,48.08,1022.03,2004.00,3255.99,2947.00,3387.32,600.28,587.43,13.68,0000 0000 0000 0000 000000
2018-06-12 07:55:43,0.00,0.35,0.00,29.06,32.53,35.17,13.67,48.20,1022.10,2004.00,3255.95,2947.00,3387.03,599.85,587.14,13.73,0000 0000 0000 0000 000000
2018-06-12 08:00:44,0.00,0.35,0.00,29.07,32.55,35.19,13.71,48.02,1022.28,2004.00,3255.89,2947.00,3387.01,600.08,587.47,13.78,0000 0000 0000 0000 000000
2018-06-12 08:05:45,0.01,0.35,0.00,29.10,32.56,35.18,13.72,47.93,1022.24,2004.00,3255.27,2946.96,3387.00,599.94,587.22,13.83,0000 0000 0000 0000 000000
2018-06-12 08:10:46,0.04,0.35,0.00,29.14,32.57,35.21,13.65,47.94,1022.09,2003.99,3254.73,2946.37,3386.50,600.10,587.17,13.88,0000 0000 0000 0000 000000
2018-06-12 08:15:48,0.01,0.35,0.00,29.15,32.60,35.21,13.74,48.07,1022.21,2003.98,3254.07,2945.96,3385.94,600.14,587.27,13.93,0000 0000 0000 0000 000000
2018-06-12 08:20:49,0.02,0.35,0.00,29.17,32.61,35.21,13.59,47.94,1022.32,2003.93,3254.00,2945.64,3385.40,599.88,587.02,13.98,0000 0000 0000 0000 000000
2018-06-12 08:25:50,0.01,0.36,0.00,29.20,32.62,35.23,13.76,48.17,1022.17,2003.89,3253.85,2945.09,3385.02,600.27,587.24,14.03,0000 0000 0000 0000 000000
2018-06-12 08:30:52,-0.01,0.35,0.00,29.21,32.64,35.24,13.79,48.22,1022.01,2003.63,3253.22,2945.00,3384.98,600.29,587.11,14.08,0000 0000 0000 0000 000000
2018-06-12 08:35:53,-0.02,0.35,0.00,29.22,32.65,35.28,13.72,48.13,1022.01,2003.33,3253.03,2944.99,3384.75,600.01,586.86,14.13,0000 0000 0000 0000 000000
2018-06-12 08:40:54,-0.01,0.35,0.00,29.24,32.67,35.27,13.75,48.12,1022.00,2003.16,3253.00,2944.98,3384.26,600.45,587.24,14.18,0000 0000 0000 0000 000000
2018-06-12 08:45:56,0.00,0.35,0.00,29.26,32.69,35.29,13.70,48.00,1021.99,2003.10,3253.00,2944.93,3384.04,599.92,586.69,14.23,0000 0000 0000 0000 000000
2018-06-12 08:50:57,0.01,0.35,0.00,29.27,32.70,35.33,13.66,47.99,1022.00,2003.03,3252.89,2944.54,3384.00,599.54,586.29,14.28,0000 0000 0000 0000 000000
2018-06-12 08:55:59,0.02,0.35,0.00,29.30,32.72,35.33,13.74,48.14,1022.00,2003.01,3252.37,2944.11,3383.99,600.29,586.95,14.33,0000 0000 0000 0000 000000
2018-06-12 09:01:00,0.01,0.35,0.00,29.32,32.73,35.36,13.66,48.09,1022.00,2003.00,3252.02,2944.02,3383.78,599.77,586.51,14.38,0000 0000 0000 0000 000000
2018-06-12 09:06:01,0.00,0.36,0.00,29.33,32.75,35.37,13.74,48.08,1022.00,2003.00,3252.00,2944.00,3383.19,600.48,587.08,14.43,0000 0000 0000 0000 000000
2018-06-12 09:11:02,0.00,0.36,0.00,29.35,32.77,35.41,13.67,48.17,1022.08,2003.00,3251.95,2944.00,3383.03,600.21,586.70,14.48,0000 0000 0000 0000 000000
2018-06-12 09:16:03,0.00,0.36,0.00,29.37,32.78,35.42,13.63,48.13,1022.09,2003.00,3251.77,2944.00,3383.00,599.83,586.48,14.53,0000 0000 0000 0000 000000
2018-06-12 09:21:05,0.01,0.36,0.00,29.42,32.80,35.45,13.68,48.08,1022.02,2003.00,3251.20,2943.91,3382.97,599.99,586.46,14.58,0000 0000 0000 0000 000000
2018-06-12 09:26:06,0.02,0.36,0.00,29.45,32.82,35.47,13.67,48.08,1022.08,2002.96,3251.00,2943.47,3382.51,600.06,586.57,14.63,0000 0000 0000 0000 000000
2018-06-12 09:31:07,-0.02,0.36,0.00,29.47,32.83,35.50,13.71,48.14,1022.06,2002.72,3250.90,2943.01,3382.02,600.17,586.54,14.68,0000 0000 0000 0000 000000
2018-06-12 09:36:09,0.01,0.36,0.00,29.51,32.85,35.53,13.66,48.08,1022.16,2002.56,3250.36,2942.99,3381.98,599.66,586.09,14.73,0000 0000 0000 0000 000000
2018-06-12 09:41:10,-0.02,0.36,0.00,29.52,32.87,35.56,13.75,48.07,1022.09,2002.31,3250.01,2942.97,3381.74,600.23,586.48,14.79,0000 0000 0000 0000 000000
2018-06-12 09:46:11,0.11,0.36,0.00,29.55,32.89,35.60,13.67,48.13,1022.06,2002.12,3248.66,2941.46,3379.69,599.78,586.05,14.84,0000 0000 0000 0000 000000
2018-06-12 09:51:12,0.01,0.36,0.00,29.58,32.91,35.62,13.69,48.07,1022.01,2002.09,3248.01,2940.71,3379.00,599.76,585.85,14.89,0000 0000 0000 0000 000000
2018-06-12 09:56:14,0.01,0.36,0.00,29.60,32.93,35.63,13.75,47.90,1022.00,2002.02,3247.99,2940.08,3378.91,600.01,586.13,14.94,0000 0000 0000 0000 000000
2018-06-12 10:01:15,0.01,0.36,0.00,29.63,32.96,35.61,13.68,47.96,1022.12,2002.01,3247.85,2940.01,3378.35,600.02,586.11,14.99,0000 0000 0000 0000 000000
2018-06-12 10:06:17,0.01,0.36,0.00,29.66,32.97,35.63,13.68,48.13,1022.03,2002.00,3247.26,2940.00,3378.02,600.34,586.40,15.04,0000 0000 0000 0000 000000
2018-06-12 10:11:18,0.00,0.36,0.00,29.69,33.00,35.66,13.60,48.08,1022.05,2001.99,3247.01,2939.96,3377.99,599.53,585.49,15.09,0000 0000 0000 0000 000000
2018-06-12 10:16:19,0.01,0.36,0.00,29.71,33.02,35.70,13.71,48.04,1022.07,2001.99,3247.00,2939.69,3377.82,600.01,585.95,15.14,0000 0000 0000 0000 000000
2018-06-12 10:21:21,0.02,0.37,0.00,29.74,33.06,35.70,13.68,47.88,1022.10,2001.94,3246.75,2939.21,3377.22,599.91,585.85,15.19,0000 0000 0000 0000 000000
2018-06-12 10:26:22,-0.05,0.37,0.00,29.78,33.08,35.71,13.64,47.82,1022.06,2001.53,3246.08,2939.00,3377.00,600.00,585.98,15.24,0000 0000 0000 0000 000000
2018-06-12 10:31:24,-0.01,0.36,0.00,29.80,33.11,35.68,13.69,47.78,1022.03,2001.16,3246.00,2938.97,3376.84,600.11,585.84,15.29,0000 0000 0000 0000 000000
2018-06-12 10:36:25,0.01,0.36,0.00,29.82,33.15,35.63,13.65,47.71,1022.06,2001.02,3245.92,2938.59,3376.17,599.88,585.63,15.34,0000 0000 0000 0000 000000
2018-06-12 10:41:26,0.02,0.37,0.00,29.85,33.18,35.63,13.66,47.84,1022.31,2001.00,3245.29,2938.10,3376.01,599.94,585.77,15.39,0000 0000 0000 0000 000000
2018-06-12 10:46:28,0.00,0.37,0.00,29.87,33.22,35.62,13.51,47.67,1022.30,2001.00,3245.02,2938.01,3375.97,599.85,585.66,15.44,0000 0000 0000 0000 000000
2018-06-12 10:51:29,0.01,0.37,0.00,29.88,33.26,35.77,13.63,47.79,1022.23,2001.00,3244.99,2937.97,3375.39,600.02,585.74,15.49,0000 0000 0000 0000 000000
2018-06-12 10:56:30,0.03,0.37,0.00,29.92,33.30,35.99,13.72,47.72,1022.36,2000.94,3244.57,2937.32,3375.00,600.06,585.91,15.54,0000 0000 0000 0000 000000
2018-06-12 11:01:32,-0.04,0.37,0.00,29.92,33.35,36.23,13.69,47.56,1022.13,2000.46,3244.03,2937.01,3374.54,599.99,585.57,15.59,0000 0000 0000 0000 000000
2018-06-12 11:06:33,-0.02,0.37,0.00,29.92,33.40,36.54,13.72,47.71,1022.24,2000.06,3243.96,2936.94,3374.02,600.29,585.89,15.64,0000 0000 0000 0000 000000
2018-06-12 11:11:35,0.04,0.37,0.00,29.92,33.46,36.90,13.67,47.74,1022.39,2000.00,3243.36,2936.29,3373.80,600.10,585.82,15.69,0000 0000 0000 0000 000000
2018-06-12 11:16:36,0.01,0.37,0.00,29.93,33.51,37.16,13.75,47.66,1022.44,2000.00,3243.00,2936.00,3373.08,599.93,585.81,15.74,0000 0000 0000 0000 000000
2018-06-12 11:21:37,0.00,0.37,0.00,29.92,33.56,37.20,13.77,47.79,1022.37,1999.97,3242.73,2935.94,3372.97,600.49,586.23,15.79,0000 0000 0000 0000 000000
2018-06-12 11:26:38,-0.00,0.37,0.00,29.91,33.61,37.13,13.76,47.75,1022.36,1999.60,3242.05,2935.17,3372.25,600.24,585.99,15.84,0000 0000 0000 0000 000000
2018-06-12 11:31:39,-0.02,0.37,0.00,29.90,33.66,37.19,13.74,47.73,1022.27,1999.11,3241.89,2935.00,3372.00,600.24,585.88,15.89,0000 0000 0000 0000 000000
2018-06-12 11:36:41,0.03,0.37,0.00,29.90,33.71,36.96,13.69,47.75,1022.10,1999.00,3241.20,2934.61,3371.45,600.02,585.52,15.94,0000 0000 0000 0000 000000
2018-06-12 11:41:42,0.01,0.37,0.00,29.88,33.75,36.80,13.65,47.61,1022.01,1998.99,3240.95,2934.03,3371.00,599.89,585.69,15.99,0000 0000 0000 0000 000000
2018-06-12 11:46:44,0.01,0.37,0.00,29.87,33.79,36.91,13.76,47.70,1022.01,1998.93,3240.31,2934.00,3370.82,600.42,586.09,16.04,0000 0000 0000 0000 000000
2018-06-12 11:51:45,-0.01,0.37,0.00,29.85,33.81,37.13,13.75,47.73,1022.00,1998.75,3240.01,2933.99,3370.23,600.16,585.80,16.09,0000 0000 0000 0000 000000
2018-06-12 11:56:46,-0.02,0.37,0.00,29.84,33.82,37.15,13.64,47.71,1021.99,1998.38,3239.95,2933.60,3370.01,599.88,585.53,16.14,0000 0000 0000 0000 000000
2018-06-12 12:01:47,0.01,0.37,0.00,29.81,33.84,36.96,13.70,47.74,1021.99,1998.07,3239.31,2933.07,3369.94,599.86,585.45,16.19,0000 0000 0000 0000 000000
2018-06-12 12:06:48,0.04,0.37,0.00,29.79,33.85,36.81,13.72,47.86,1021.99,1998.00,3238.70,2932.32,3369.05,599.81,585.51,16.24,0000 0000 0000 0000 000000
2018-06-12 12:11:50,0.02,0.37,0.00,29.76,33.84,36.63,13.73,47.88,1021.99,1998.00,3238.13,2932.04,3368.57,600.17,586.03,16.29,0000 0000 0000 0000 000000
2018-06-12 12:16:51,0.00,0.37,0.00,29.75,33.82,36.44,13.66,47.91,1021.99,1998.00,3238.01,2932.01,3368.18,599.91,585.68,16.34,0000 0000 0000 0000 000000
2018-06-12 12:21:53,0.00,0.37,0.00,29.73,33.81,36.37,13.72,47.97,1021.99,1998.00,3237.99,2932.00,3368.03,600.06,585.94,16.39,0000 0000 0000 0000 000000
2018-06-12 12:26:54,0.00,0.37,0.00,29.70,33.80,36.31,13.74,47.99,1021.98,1998.00,3237.99,2932.00,3368.02,599.95,585.90,16.44,0000 0000 0000 0000 000000
2018-06-12 12:31:56,0.00,0.37,0.00,29.70,33.78,36.28,13.69,47.96,1021.95,1998.00,3237.97,2932.00,3368.00,600.12,585.95,16.49,0000 0000 0000 0000 000000
2018-06-12 12:36:57,0.00,0.37,0.00,29.67,33.76,36.18,13.72,47.92,1021.90,1998.00,3237.96,2932.00,3368.01,600.06,585.98,16.54,0000 0000 0000 0000 000000
2018-06-12 12:41:58,0.00,0.37,0.00,29.67,33.75,36.15,13.75,47.98,1021.74,1998.02,3237.98,2932.01,3368.05,600.23,586.13,16.59,0000 0000 0000 0000 000000
2018-06-12 12:47:00,0.00,0.37,0.00,29.65,33.72,36.13,13.76,47.90,1021.80,1998.07,3237.99,2932.04,3368.12,600.23,586.17,16.64,0000 0000 0000 0000 000000
2018-06-12 12:52:01,0.00,0.37,0.00,29.64,33.71,36.09,13.73,47.92,1021.67,1998.09,3237.94,2932.04,3368.05,600.17,586.10,16.69,0000 0000 0000 0000 000000
2018-06-12 12:57:02,0.02,0.37,0.00,29.64,33.69,36.02,13.74,47.89,1021.78,1998.29,3237.90,2932.05,3368.05,600.26,586.06,16.74,0000 0000 0000 0000 000000